Content
SEND FEEDBACK

Daily
Averages
Monthly
Summary
United States of America

LAURENS, SOUTH CAROLINA


Home > North America > United States > South Carolina
Elevation: 621 feet     Latitude: 34 30N     Longitude: 082 02W

WEATHER
 
SELECT A DAY
Number of Records: 130,287;   Date Range: 12/16/08 - 7/27/14
 
SHARE

PRINT THIS DATA

[ ← Previous Day ]
WEATHER ALMANAC - JANUARY 31, 2013
[ Next Day → ]
[ °C ]   °F
Weather ElementAverageHighLow
Temperature42.9 °F50 °F (3:15 pm)37.4 °F (5:55 am)
Dewpoint27 °F46.4 °F (12:35 am)19.4 °F (5:35 pm)
Humidity55.4 %93 % (12:35 am)32 % (3:35 pm)
Barometer29.95 in30.11 in (10:15 pm)29.66 in (12:35 am)
Wind Speed12.8 mph21.9 mph (2:35 am)
Wind Gust33.4 mph (2:35 am)
Weather ElementAverage
Visibility10 mi
Wind DirectionWSW (255.3 °)

Weather ElementTotal
Precipitation---
Heating Degree Days21.3 (Base 65)
Averaged from 70 records on January 31, 2013
WEATHER CONDITIONS BREAKOUT
WIND DIRECTION BREAKOUT
WEATHER BY HOUR - JANUARY 31, 2013
[ °C ]   °F
Local TimeTemperatureDewpointHumidityBarometerVisibilityWind DirectionWind SpeedGust SpeedPrecipitationEventsConditions
12:35 AM48.2 °F46.4 °F93 %29.66 in10.0 miSW (230°)13.8 mph23.0 mphOvercast
12:55 AM48.2 °F46.4 °F93 %29.67 in10.0 miWSW (240°)11.5 mph27.6 mphRainLight Rain
1:15 AM46.4 °F42.8 °F87 %29.68 in10.0 miWSW (250°)17.3 mph25.3 mphMostly Cloudy
1:35 AM46.4 °F42.8 °F87 %29.69 in10.0 miWSW (250°)16.1 mph26.5 mphScattered Clouds
1:55 AM46.4 °F41.0 °F81 %29.71 in10.0 miWSW (250°)15.0 mph29.9 mphScattered Clouds
2:15 AM44.6 °F37.4 °F76 %29.73 in10.0 miWSW (250°)15.0 mph28.8 mphScattered Clouds
2:35 AM44.6 °F33.8 °F66 %29.74 in10.0 miWSW (250°)21.9 mph33.4 mphScattered Clouds
2:55 AM42.8 °F33.8 °F70 %29.75 in10.0 miWSW (250°)17.3 mph32.2 mphScattered Clouds
3:15 AM42.8 °F32.0 °F66 %29.76 in10.0 miWest (260°)12.7 mph27.6 mphScattered Clouds
3:35 AM42.8 °F32.0 °F66 %29.77 in10.0 miWSW (240°)15.0 mph23.0 mphClear
3:55 AM41.0 °F32.0 °F70 %29.78 in10.0 miWSW (250°)10.4 mph24.2 mphClear
4:15 AM41.0 °F32.0 °F70 %29.79 in10.0 miWest (260°)17.3 mph26.5 mphClear
4:35 AM41.0 °F32.0 °F70 %29.80 in10.0 miWest (260°)11.5 mph24.2 mphClear
4:55 AM41.0 °F32.0 °F70 %29.81 in10.0 miWest (260°)11.5 mph20.7 mphClear
5:15 AM41.0 °F32.0 °F70 %29.82 in10.0 miWest (270°)10.4 mph21.9 mphClear
5:35 AM39.2 °F30.2 °F70 %29.84 in10.0 miWest (280°)19.6 mph29.9 mphClear
5:55 AM37.4 °F28.4 °F70 %29.85 in10.0 miWest (280°)15.0 mph21.9 mphClear
6:15 AM37.4 °F26.6 °F65 %29.87 in10.0 miWest (280°)18.4 mph28.8 mphClear
6:35 AM37.4 °F26.6 °F65 %29.88 in10.0 miWest (270°)15.0 mph25.3 mphClear
6:55 AM37.4 °F24.8 °F60 %29.91 in10.0 miWest (280°)12.7 mph25.3 mphClear
7:15 AM37.4 °F24.8 °F60 %29.91 in10.0 miWest (270°)12.7 mph27.6 mphClear
7:35 AM37.4 °F24.8 °F60 %29.93 in10.0 miWest (270°)18.4 mph31.1 mphClear
7:55 AM37.4 °F26.6 °F65 %29.94 in10.0 miWest (260°)10.4 mph26.5 mphClear
8:15 AM37.4 °F28.4 °F70 %29.95 in10.0 miWest (260°)9.2 mph16.1 mphClear
8:35 AM37.4 °F28.4 °F70 %29.96 in10.0 miWest (260°)10.4 mphClear
8:55 AM37.4 °F28.4 °F70 %29.97 in10.0 miWest (270°)16.1 mph21.9 mphClear
9:15 AM41.0 °F28.4 °F61 %29.97 in10.0 miWest (260°)12.7 mph19.6 mphClear
9:35 AM41.0 °F28.4 °F61 %29.98 in10.0 miWest (280°)16.1 mph23.0 mphClear
9:55 AM41.0 °F28.4 °F61 %29.99 in10.0 miWest (270°)13.8 mph20.7 mphClear
10:15 AM42.8 °F26.6 °F53 %30.00 in10.0 miWest (260°)15.0 mph19.6 mphClear
10:35 AM42.8 °F26.6 °F53 %30.01 in10.0 miWest (260°)12.7 mph20.7 mphClear
10:55 AM42.8 °F24.8 °F49 %30.00 in10.0 miWest (280°)15.0 mph19.6 mphClear
11:15 AM42.8 °F24.8 °F49 %30.00 in10.0 miWSW (250°)11.5 mph23.0 mphClear
11:35 AM44.6 °F23.0 °F43 %30.00 in10.0 miWSW (250°)16.1 mph24.2 mphClear
11:55 AM44.6 °F23.0 °F43 %30.01 in10.0 miWest (270°)15.0 mph24.2 mphClear
12:15 PM44.6 °F23.0 °F43 %30.00 in10.0 miWSW (250°)16.1 mph24.2 mphClear
12:35 PM46.4 °F23.0 °F40 %30.00 in10.0 miWest (270°)12.7 mph26.5 mphClear
12:55 PM46.4 °F23.0 °F40 %30.00 in10.0 miWSW (250°)17.3 mph26.5 mphClear
1:15 PM46.4 °F23.0 °F40 %29.99 in10.0 miWest (260°)16.1 mph28.8 mphClear
1:35 PM46.4 °F23.0 °F40 %29.99 in10.0 miWest (270°)18.4 mph31.1 mphClear
1:55 PM46.4 °F23.0 °F40 %29.99 in10.0 miWSW (250°)13.8 mph27.6 mphClear
2:15 PM48.2 °F23.0 °F37 %29.99 in10.0 miWest (270°)16.1 mph25.3 mphClear
2:35 PM48.2 °F23.0 °F37 %29.99 in10.0 miWSW (250°)17.3 mph26.5 mphClear
2:55 PM48.2 °F23.0 °F37 %30.01 in10.0 miWSW (250°)16.1 mph26.5 mphClear
3:15 PM50.0 °F24.8 °F37 %30.00 in10.0 miWest (280°)15.0 mph29.9 mphClear
3:35 PM50.0 °F21.2 °F32 %30.01 in10.0 miWest (270°)17.3 mph29.9 mphClear
3:55 PM50.0 °F21.2 °F32 %30.02 in10.0 miWest (280°)19.6 mph25.3 mphClear
4:15 PM50.0 °F21.2 °F32 %30.02 in10.0 miWest (280°)18.4 mph27.6 mphClear
4:35 PM50.0 °F21.2 °F32 %30.01 in10.0 miWest (280°)12.7 mph24.2 mphClear
4:55 PM48.2 °F21.2 °F34 %30.02 in10.0 miWest (270°)11.5 mph23.0 mphClear
5:15 PM48.2 °F21.2 °F34 %30.02 in10.0 miWest (270°)10.4 mph18.4 mphClear
5:35 PM46.4 °F19.4 °F34 %30.02 in10.0 miWest (260°)10.4 mph18.4 mphClear
5:55 PM46.4 °F21.2 °F37 %30.03 in10.0 miWest (260°)6.9 mph17.3 mphClear
6:15 PM44.6 °F21.2 °F39 %30.04 in10.0 miWSW (250°)6.9 mphClear
6:35 PM44.6 °F21.2 °F39 %30.05 in10.0 miWSW (250°)4.6 mphClear
6:55 PM42.8 °F21.2 °F42 %30.05 in10.0 miWSW (240°)4.6 mphClear
7:15 PM42.8 °F23.0 °F46 %30.06 in10.0 miWSW (240°)6.9 mphClear
7:35 PM42.8 °F23.0 °F46 %30.07 in10.0 miWSW (240°)6.9 mphClear
7:55 PM41.0 °F23.0 °F49 %30.07 in10.0 miSW (230°)6.9 mphClear
8:15 PM41.0 °F23.0 °F49 %30.08 in10.0 miSW (230°)6.9 mphClear
8:35 PM39.2 °F23.0 °F52 %30.08 in10.0 miSW (220°)4.6 mphClear
8:55 PM39.2 °F23.0 °F52 %30.08 in10.0 miSSW (210°)5.8 mphClear
9:15 PM39.2 °F24.8 °F56 %30.09 in10.0 miWSW (240°)6.9 mphClear
9:35 PM41.0 °F24.8 °F53 %30.09 in10.0 miWSW (240°)8.1 mphClear
9:55 PM39.2 °F24.8 °F56 %30.10 in10.0 miSW (230°)9.2 mphClear
10:15 PM39.2 °F24.8 °F56 %30.11 in10.0 miSW (230°)9.2 mphClear
10:35 PM39.2 °F26.6 °F61 %30.11 in10.0 miSW (230°)12.7 mph16.1 mphClear
11:15 PM39.2 °F26.6 °F61 %30.11 in10.0 miSW (230°)10.4 mph18.4 mphClear
11:35 PM37.4 °F26.6 °F65 %30.11 in10.0 miSW (230°)9.2 mphClear
11:55 PM37.4 °F26.6 °F65 %30.11 in10.0 miSW (230°)10.4 mphClear
Hourly data recorded from KLUX, located miles away from Laurens, South Carolina







STORIES FROM OUR PARTNERS